Year,Month,Day,Hour,Minute,Value (Times are PST for temperature in C)
2011,08,16,00,00,13.60
2011,08,16,00,01,13.60
2011,08,16,00,02,13.60
2011,08,16,00,03,13.50
2011,08,16,00,04,13.50
2011,08,16,00,05,13.40
2011,08,16,00,06,13.40
2011,08,16,00,07,13.40
2011,08,16,00,08,13.40
2011,08,16,00,09,13.30
2011,08,16,00,10,13.30
2011,08,16,00,11,13.30
2011,08,16,00,12,13.30
2011,08,16,00,13,13.30
2011,08,16,00,14,13.30
2011,08,16,00,15,13.30
2011,08,16,00,16,13.30
2011,08,16,00,17,13.30
2011,08,16,00,18,13.30
2011,08,16,00,19,13.30
2011,08,16,00,20,13.30
2011,08,16,00,21,13.30
2011,08,16,00,22,13.30
2011,08,16,00,23,13.30
2011,08,16,00,24,13.30
2011,08,16,00,25,13.30
2011,08,16,00,26,13.30
2011,08,16,00,27,13.30
2011,08,16,00,28,13.30
2011,08,16,00,29,13.30
2011,08,16,00,30,13.30
2011,08,16,00,31,13.30
2011,08,16,00,32,13.30
2011,08,16,00,33,13.30
2011,08,16,00,34,13.30
2011,08,16,00,35,13.30
2011,08,16,00,36,13.30
2011,08,16,00,37,13.30
2011,08,16,00,38,13.30
2011,08,16,00,39,13.20
2011,08,16,00,40,13.20
2011,08,16,00,41,13.20
2011,08,16,00,42,13.20
2011,08,16,00,43,13.20
2011,08,16,00,44,13.20
2011,08,16,00,45,13.10
2011,08,16,00,46,13.10
2011,08,16,00,47,13.10
2011,08,16,00,48,13.00
2011,08,16,00,49,13.00
2011,08,16,00,50,12.90
2011,08,16,00,51,12.90
2011,08,16,00,52,12.80
2011,08,16,00,53,12.80
2011,08,16,00,54,12.80
2011,08,16,00,55,12.80
2011,08,16,00,56,12.70
2011,08,16,00,57,12.70
2011,08,16,00,58,12.70
2011,08,16,00,59,12.60
2011,08,16,01,00,12.60
2011,08,16,01,01,12.60
2011,08,16,01,02,12.50
2011,08,16,01,03,12.50
2011,08,16,01,04,12.40
2011,08,16,01,05,12.40
2011,08,16,01,06,12.40
2011,08,16,01,07,12.30
2011,08,16,01,08,12.30
2011,08,16,01,09,12.30
2011,08,16,01,10,12.30
2011,08,16,01,11,12.20
2011,08,16,01,12,12.20
2011,08,16,01,13,12.20
2011,08,16,01,14,12.20
2011,08,16,01,15,12.20
2011,08,16,01,16,12.20
2011,08,16,01,17,12.10
2011,08,16,01,18,12.10
2011,08,16,01,19,12.10
2011,08,16,01,20,12.10
2011,08,16,01,21,12.10
2011,08,16,01,22,12.10
2011,08,16,01,23,12.00
2011,08,16,01,24,12.00
2011,08,16,01,25,12.00
2011,08,16,01,26,12.00
2011,08,16,01,27,11.90
2011,08,16,01,28,11.90
2011,08,16,01,29,11.90
2011,08,16,01,30,11.90
2011,08,16,01,31,11.90
2011,08,16,01,32,11.90
2011,08,16,01,33,11.90
2011,08,16,01,34,11.90
2011,08,16,01,35,11.90
2011,08,16,01,36,11.90
2011,08,16,01,37,11.90
2011,08,16,01,38,11.90
2011,08,16,01,39,11.90
2011,08,16,01,40,11.90
2011,08,16,01,41,11.80
2011,08,16,01,42,11.80
2011,08,16,01,43,11.80
2011,08,16,01,44,11.80
2011,08,16,01,45,11.80
2011,08,16,01,46,11.80
2011,08,16,01,47,11.80
2011,08,16,01,48,11.70
2011,08,16,01,49,11.70
2011,08,16,01,50,11.70
2011,08,16,01,51,11.70
2011,08,16,01,52,11.70
2011,08,16,01,53,11.70
2011,08,16,01,54,11.70
2011,08,16,01,55,11.70
2011,08,16,01,56,11.70
2011,08,16,01,57,11.70
2011,08,16,01,58,11.60
2011,08,16,01,59,11.60
2011,08,16,02,00,11.60
2011,08,16,02,01,11.60
2011,08,16,02,02,11.60
2011,08,16,02,03,11.60
2011,08,16,02,04,11.60
2011,08,16,02,05,11.60
2011,08,16,02,06,11.60
2011,08,16,02,07,11.60
2011,08,16,02,08,11.60
2011,08,16,02,09,11.60
2011,08,16,02,10,11.60
2011,08,16,02,11,11.60
2011,08,16,02,12,11.60
2011,08,16,02,13,11.60
2011,08,16,02,14,11.60
2011,08,16,02,15,11.50
2011,08,16,02,16,11.50
2011,08,16,02,17,11.50
2011,08,16,02,18,11.50
2011,08,16,02,19,11.50
2011,08,16,02,20,11.40
2011,08,16,02,21,11.40
2011,08,16,02,22,11.40
2011,08,16,02,23,11.40
2011,08,16,02,24,11.40
2011,08,16,02,25,11.30
2011,08,16,02,26,11.30
2011,08,16,02,27,11.30
2011,08,16,02,28,11.30
2011,08,16,02,29,11.20
2011,08,16,02,30,11.20
2011,08,16,02,31,11.20
2011,08,16,02,32,11.20
2011,08,16,02,33,11.10
2011,08,16,02,34,11.10
2011,08,16,02,35,11.10
2011,08,16,02,36,11.10
2011,08,16,02,37,11.00
2011,08,16,02,38,11.00
2011,08,16,02,39,11.00
2011,08,16,02,40,11.00
2011,08,16,02,41,10.90
2011,08,16,02,42,10.90
2011,08,16,02,43,10.90
2011,08,16,02,44,10.90
2011,08,16,02,45,10.90
2011,08,16,02,46,10.90
2011,08,16,02,47,10.80
2011,08,16,02,48,10.80
2011,08,16,02,49,10.80
2011,08,16,02,50,10.80
2011,08,16,02,51,10.80
2011,08,16,02,52,10.80
2011,08,16,02,53,10.80
2011,08,16,02,54,10.80
2011,08,16,02,55,10.80
2011,08,16,02,56,10.70
2011,08,16,02,57,10.70
2011,08,16,02,58,10.70
2011,08,16,02,59,10.70
2011,08,16,03,00,10.70
2011,08,16,03,01,10.70
2011,08,16,03,02,10.70
2011,08,16,03,03,10.70
2011,08,16,03,04,10.70
2011,08,16,03,05,10.70
2011,08,16,03,06,10.70
2011,08,16,03,07,10.70
2011,08,16,03,08,10.70
2011,08,16,03,09,10.70
2011,08,16,03,10,10.70
2011,08,16,03,11,10.70
2011,08,16,03,12,10.60
2011,08,16,03,13,10.60
2011,08,16,03,14,10.60
2011,08,16,03,15,10.60
2011,08,16,03,16,10.60
2011,08,16,03,17,10.60
2011,08,16,03,18,10.50
2011,08,16,03,19,10.50
2011,08,16,03,20,10.50
2011,08,16,03,21,10.40
2011,08,16,03,22,10.40
2011,08,16,03,23,10.40
2011,08,16,03,24,10.40
2011,08,16,03,25,10.40
2011,08,16,03,26,10.40
2011,08,16,03,27,10.40
2011,08,16,03,28,10.40
2011,08,16,03,29,10.40
2011,08,16,03,30,10.40
2011,08,16,03,31,10.40
2011,08,16,03,32,10.40
2011,08,16,03,33,10.40
2011,08,16,03,34,10.30
2011,08,16,03,35,10.30
2011,08,16,03,36,10.30
2011,08,16,03,37,10.30
2011,08,16,03,38,10.30
2011,08,16,03,39,10.40
2011,08,16,03,40,10.40
2011,08,16,03,41,10.40
2011,08,16,03,42,10.40
2011,08,16,03,43,10.40
2011,08,16,03,44,10.40
2011,08,16,03,45,10.40
2011,08,16,03,46,10.40
2011,08,16,03,47,10.40
2011,08,16,03,48,10.40
2011,08,16,03,49,10.40
2011,08,16,03,50,10.40
2011,08,16,03,51,10.40
2011,08,16,03,52,10.30
2011,08,16,03,53,10.30
2011,08,16,03,54,10.30
2011,08,16,03,55,10.30
2011,08,16,03,56,10.30
2011,08,16,03,57,10.30
2011,08,16,03,58,10.30
2011,08,16,03,59,10.30
2011,08,16,04,00,10.30
2011,08,16,04,01,10.30
2011,08,16,04,02,10.30
2011,08,16,04,03,10.30
2011,08,16,04,04,10.20
2011,08,16,04,05,10.20
2011,08,16,04,06,10.20
2011,08,16,04,07,10.20
2011,08,16,04,08,10.20
2011,08,16,04,09,10.20
2011,08,16,04,10,10.20
2011,08,16,04,11,10.20
2011,08,16,04,12,10.20
2011,08,16,04,13,10.20
2011,08,16,04,14,10.20
2011,08,16,04,15,10.20
2011,08,16,04,16,10.20
2011,08,16,04,17,10.20
2011,08,16,04,18,10.20
2011,08,16,04,19,10.20
2011,08,16,04,20,10.20
2011,08,16,04,21,10.20
2011,08,16,04,22,10.30
2011,08,16,04,23,10.30
2011,08,16,04,24,10.20
2011,08,16,04,25,10.20
2011,08,16,04,26,10.20
2011,08,16,04,27,10.20
2011,08,16,04,28,10.20
2011,08,16,04,29,10.20
2011,08,16,04,30,10.20
2011,08,16,04,31,10.20
2011,08,16,04,32,10.20
2011,08,16,04,33,10.20
2011,08,16,04,34,10.20
2011,08,16,04,35,10.30
2011,08,16,04,36,10.30
2011,08,16,04,37,10.30
2011,08,16,04,38,10.30
2011,08,16,04,39,10.30
2011,08,16,04,40,10.30
2011,08,16,04,41,10.30
2011,08,16,04,42,10.30
2011,08,16,04,43,10.30
2011,08,16,04,44,10.30
2011,08,16,04,45,10.30
2011,08,16,04,46,10.30
2011,08,16,04,47,10.30
2011,08,16,04,48,10.30
2011,08,16,04,49,10.30
2011,08,16,04,50,10.20
2011,08,16,04,51,10.20
2011,08,16,04,52,10.20
2011,08,16,04,53,10.20
2011,08,16,04,54,10.20
2011,08,16,04,55,10.20
2011,08,16,04,56,10.20
2011,08,16,04,57,10.20
2011,08,16,04,58,10.10
2011,08,16,04,59,10.10
2011,08,16,05,00,10.10
2011,08,16,05,01,10.10
2011,08,16,05,02,10.10
2011,08,16,05,03,10.10
2011,08,16,05,04,10.10
2011,08,16,05,05,10.00
2011,08,16,05,06,10.00
2011,08,16,05,07,10.00
2011,08,16,05,08,10.00
2011,08,16,05,09,9.90
2011,08,16,05,10,9.90
2011,08,16,05,11,9.90
2011,08,16,05,12,9.80
2011,08,16,05,13,9.80
2011,08,16,05,14,9.80
2011,08,16,05,15,9.70
2011,08,16,05,16,9.70
2011,08,16,05,17,9.70
2011,08,16,05,18,9.70
2011,08,16,05,19,9.70
2011,08,16,05,20,9.60
2011,08,16,05,21,9.60
2011,08,16,05,22,9.60
2011,08,16,05,23,9.50
2011,08,16,05,24,9.50
2011,08,16,05,25,9.50
2011,08,16,05,26,9.50
2011,08,16,05,27,9.40
2011,08,16,05,28,9.40
2011,08,16,05,29,9.40
2011,08,16,05,30,9.40
2011,08,16,05,31,9.30
2011,08,16,05,32,9.30
2011,08,16,05,33,9.30
2011,08,16,05,34,9.30
2011,08,16,05,35,9.30
2011,08,16,05,36,9.30
2011,08,16,05,37,9.30
2011,08,16,05,38,9.30
2011,08,16,05,39,9.30
2011,08,16,05,40,9.30
2011,08,16,05,41,9.30
2011,08,16,05,42,9.30
2011,08,16,05,43,9.30
2011,08,16,05,44,9.30
2011,08,16,05,45,9.30
2011,08,16,05,46,9.30
2011,08,16,05,47,9.30
2011,08,16,05,48,9.30
2011,08,16,05,49,9.30
2011,08,16,05,50,9.30
2011,08,16,05,51,9.30
2011,08,16,05,52,9.30
2011,08,16,05,53,9.30
2011,08,16,05,54,9.30
2011,08,16,05,55,9.30
2011,08,16,05,56,9.30
2011,08,16,05,57,9.30
2011,08,16,05,58,9.30
2011,08,16,05,59,9.30
2011,08,16,06,00,9.30
2011,08,16,06,01,9.30
2011,08,16,06,02,9.30
2011,08,16,06,03,9.30
2011,08,16,06,04,9.30
2011,08,16,06,05,9.30
2011,08,16,06,06,9.30
2011,08,16,06,07,9.30
2011,08,16,06,08,9.30
2011,08,16,06,09,9.30
2011,08,16,06,10,9.30
2011,08,16,06,11,9.30
2011,08,16,06,12,9.30
2011,08,16,06,13,9.40
2011,08,16,06,14,9.40
2011,08,16,06,15,9.40
2011,08,16,06,16,9.50
2011,08,16,06,17,9.50
2011,08,16,06,18,9.60
2011,08,16,06,19,9.60
2011,08,16,06,20,9.60
2011,08,16,06,21,9.60
2011,08,16,06,22,9.60
2011,08,16,06,23,9.60
2011,08,16,06,24,9.60
2011,08,16,06,25,9.60
2011,08,16,06,26,9.60
2011,08,16,06,27,9.60
2011,08,16,06,28,9.60
2011,08,16,06,29,9.60
2011,08,16,06,30,9.60
2011,08,16,06,31,9.60
2011,08,16,06,32,9.60
2011,08,16,06,33,9.60
2011,08,16,06,34,9.60
2011,08,16,06,35,9.60
2011,08,16,06,36,9.60
2011,08,16,06,37,9.70
2011,08,16,06,38,9.70
2011,08,16,06,39,9.80
2011,08,16,06,40,9.80
2011,08,16,06,41,9.80
2011,08,16,06,42,9.80
2011,08,16,06,43,9.80
2011,08,16,06,44,9.80
2011,08,16,06,45,9.90
2011,08,16,06,46,9.90
2011,08,16,06,47,10.00
2011,08,16,06,48,10.00
2011,08,16,06,49,10.10
2011,08,16,06,50,10.10
2011,08,16,06,51,10.20
2011,08,16,06,52,10.20
2011,08,16,06,53,10.20
2011,08,16,06,54,10.30
2011,08,16,06,55,10.30
2011,08,16,06,56,10.30
2011,08,16,06,57,10.30
2011,08,16,06,58,10.30
2011,08,16,06,59,10.30
2011,08,16,07,00,10.30
2011,08,16,07,01,10.30
2011,08,16,07,02,10.30
2011,08,16,07,03,10.40
2011,08,16,07,04,10.40
2011,08,16,07,05,10.40
2011,08,16,07,06,10.40
2011,08,16,07,07,10.50
2011,08,16,07,08,10.50
2011,08,16,07,09,10.50
2011,08,16,07,10,10.60
2011,08,16,07,11,10.60
2011,08,16,07,12,10.60
2011,08,16,07,13,10.60
2011,08,16,07,14,10.60
2011,08,16,07,15,10.60
2011,08,16,07,16,10.60
2011,08,16,07,17,10.60
2011,08,16,07,18,10.70
2011,08,16,07,19,10.70
2011,08,16,07,20,10.80
2011,08,16,07,21,10.80
2011,08,16,07,22,10.90
2011,08,16,07,23,11.00
2011,08,16,07,24,11.00
2011,08,16,07,25,11.10
2011,08,16,07,26,11.10
2011,08,16,07,27,11.20
2011,08,16,07,28,11.20
2011,08,16,07,29,11.20
2011,08,16,07,30,11.30
2011,08,16,07,31,11.30
2011,08,16,07,32,11.40
2011,08,16,07,33,11.40
2011,08,16,07,34,11.50
2011,08,16,07,35,11.50
2011,08,16,07,36,11.60
2011,08,16,07,37,11.60
2011,08,16,07,38,11.60
2011,08,16,07,39,11.60
2011,08,16,07,40,11.60
2011,08,16,07,41,11.60
2011,08,16,07,42,11.60
2011,08,16,07,43,11.60
2011,08,16,07,44,11.60
2011,08,16,07,45,11.70
2011,08,16,07,46,11.70
2011,08,16,07,47,11.70
2011,08,16,07,48,11.70
2011,08,16,07,49,11.80
2011,08,16,07,50,11.80
2011,08,16,07,51,11.90
2011,08,16,07,52,11.90
2011,08,16,07,53,12.00
2011,08,16,07,54,12.00
2011,08,16,07,55,12.10
2011,08,16,07,56,12.10
2011,08,16,07,57,12.20
2011,08,16,07,58,12.20
2011,08,16,07,59,12.20
2011,08,16,08,00,12.30
2011,08,16,08,01,12.30
2011,08,16,08,02,12.40
2011,08,16,08,03,12.40
2011,08,16,08,04,12.40
2011,08,16,08,05,12.50
2011,08,16,08,06,12.60
2011,08,16,08,07,12.60
2011,08,16,08,08,12.60
2011,08,16,08,09,12.70
2011,08,16,08,10,12.70
2011,08,16,08,11,12.80
2011,08,16,08,12,12.80
2011,08,16,08,13,12.80
2011,08,16,08,14,12.90
2011,08,16,08,15,13.00
2011,08,16,08,16,13.00
2011,08,16,08,17,13.10
2011,08,16,08,18,13.10
2011,08,16,08,19,13.20
2011,08,16,08,20,13.20
2011,08,16,08,21,13.30
2011,08,16,08,22,13.40
2011,08,16,08,23,13.60
2011,08,16,08,24,13.70
2011,08,16,08,25,13.80
2011,08,16,08,26,14.00
2011,08,16,08,27,14.10
2011,08,16,08,28,14.20
2011,08,16,08,29,14.20
2011,08,16,08,30,14.30
2011,08,16,08,31,14.40
2011,08,16,08,32,14.40
2011,08,16,08,33,14.50
2011,08,16,08,34,14.60
2011,08,16,08,35,14.60
2011,08,16,08,36,14.60
2011,08,16,08,37,14.70
2011,08,16,08,38,14.70
2011,08,16,08,39,14.70
2011,08,16,08,40,14.80
2011,08,16,08,41,14.80
2011,08,16,08,42,14.80
2011,08,16,08,43,14.80
2011,08,16,08,44,14.80
2011,08,16,08,45,14.80
2011,08,16,08,46,14.90
2011,08,16,08,47,14.90
2011,08,16,08,48,14.90
2011,08,16,08,49,15.00
2011,08,16,08,50,15.00
2011,08,16,08,51,15.00
2011,08,16,08,52,15.10
2011,08,16,08,53,15.20
2011,08,16,08,54,15.20
2011,08,16,08,55,15.30
2011,08,16,08,56,15.30
2011,08,16,08,57,15.40
2011,08,16,08,58,15.40
2011,08,16,08,59,15.50
2011,08,16,09,00,15.50
2011,08,16,09,01,15.50
2011,08,16,09,02,15.60
2011,08,16,09,03,15.60
2011,08,16,09,04,15.60
2011,08,16,09,05,15.60
2011,08,16,09,06,15.70
2011,08,16,09,07,15.70
2011,08,16,09,08,15.70
2011,08,16,09,09,15.70
2011,08,16,09,10,15.70
2011,08,16,09,11,15.70
2011,08,16,09,12,15.80
2011,08,16,09,13,15.80
2011,08,16,09,14,15.80
2011,08,16,09,15,15.90
2011,08,16,09,16,15.90
2011,08,16,09,17,15.90
2011,08,16,09,18,15.90
2011,08,16,09,19,15.90
2011,08,16,09,20,16.00
2011,08,16,09,21,16.00
2011,08,16,09,22,16.10
2011,08,16,09,23,16.20
2011,08,16,09,24,16.20
2011,08,16,09,25,16.30
2011,08,16,09,26,16.30
2011,08,16,09,27,16.30
2011,08,16,09,28,16.30
2011,08,16,09,29,16.30
2011,08,16,09,30,16.30
2011,08,16,09,31,16.30
2011,08,16,09,32,16.30
2011,08,16,09,33,16.40
2011,08,16,09,34,16.50
2011,08,16,09,35,16.50
2011,08,16,09,36,16.60
2011,08,16,09,37,16.60
2011,08,16,09,38,16.60
2011,08,16,09,39,16.60
2011,08,16,09,40,16.60
2011,08,16,09,41,16.70
2011,08,16,09,42,16.70
2011,08,16,09,43,16.80
2011,08,16,09,44,16.80
2011,08,16,09,45,16.90
2011,08,16,09,46,16.90
2011,08,16,09,47,16.90
2011,08,16,09,48,16.90
2011,08,16,09,49,16.90
2011,08,16,09,50,17.00
2011,08,16,09,51,17.10
2011,08,16,09,52,17.10
2011,08,16,09,53,17.10
2011,08,16,09,54,17.10
2011,08,16,09,55,17.10
2011,08,16,09,56,17.10
2011,08,16,09,57,17.10
2011,08,16,09,58,17.10
2011,08,16,09,59,17.10
2011,08,16,10,00,17.20
2011,08,16,10,01,17.20
2011,08,16,10,02,17.30
2011,08,16,10,03,17.30
2011,08,16,10,04,17.40
2011,08,16,10,05,17.50
2011,08,16,10,06,17.60
2011,08,16,10,07,17.60
2011,08,16,10,08,17.60
2011,08,16,10,09,17.60
2011,08,16,10,10,17.70
2011,08,16,10,11,17.70
2011,08,16,10,12,17.70
2011,08,16,10,13,17.80
2011,08,16,10,14,17.80
2011,08,16,10,15,17.80
2011,08,16,10,16,17.80
2011,08,16,10,17,17.80
2011,08,16,10,18,17.80
2011,08,16,10,19,17.80
2011,08,16,10,20,17.80
2011,08,16,10,21,17.80
2011,08,16,10,22,17.80
2011,08,16,10,23,17.80
2011,08,16,10,24,17.80
2011,08,16,10,25,17.80
2011,08,16,10,26,17.80
2011,08,16,10,27,17.80
2011,08,16,10,28,17.80
2011,08,16,10,29,17.80
2011,08,16,10,30,17.80
2011,08,16,10,31,17.80
2011,08,16,10,32,17.80
2011,08,16,10,33,17.80
2011,08,16,10,34,17.90
2011,08,16,10,35,17.90
2011,08,16,10,36,17.90
2011,08,16,10,37,17.90
2011,08,16,10,38,17.90
2011,08,16,10,39,17.90
2011,08,16,10,40,17.90
2011,08,16,10,41,17.90
2011,08,16,10,42,17.90
2011,08,16,10,43,17.90
2011,08,16,10,44,17.90
2011,08,16,10,45,17.90
2011,08,16,10,46,18.00
2011,08,16,10,47,18.00
2011,08,16,10,48,18.10
2011,08,16,10,49,18.30
2011,08,16,10,50,18.30
2011,08,16,10,51,18.40
2011,08,16,10,52,18.40
2011,08,16,10,53,18.40
2011,08,16,10,54,18.50
2011,08,16,10,55,18.50
2011,08,16,10,56,18.60
2011,08,16,10,57,18.70
2011,08,16,10,58,18.70
2011,08,16,10,59,18.70
2011,08,16,11,00,18.70
2011,08,16,11,01,18.70
2011,08,16,11,02,18.60
2011,08,16,11,03,18.60
2011,08,16,11,04,18.60
2011,08,16,11,05,18.60
2011,08,16,11,06,18.60
2011,08,16,11,07,18.70
2011,08,16,11,08,18.70
2011,08,16,11,09,18.80
2011,08,16,11,10,18.90
2011,08,16,11,11,18.90
2011,08,16,11,12,19.00
2011,08,16,11,13,19.10
2011,08,16,11,14,19.10
2011,08,16,11,15,19.20
2011,08,16,11,16,19.20
2011,08,16,11,17,19.20
2011,08,16,11,18,19.20
2011,08,16,11,19,19.20
2011,08,16,11,20,19.20
2011,08,16,11,21,19.20
2011,08,16,11,22,19.20
2011,08,16,11,23,19.30
2011,08,16,11,24,19.30
2011,08,16,11,25,19.30
2011,08,16,11,26,19.30
2011,08,16,11,27,19.30
2011,08,16,11,28,19.30
2011,08,16,11,29,19.40
2011,08,16,11,30,19.50
2011,08,16,11,31,19.50
2011,08,16,11,32,19.60
2011,08,16,11,33,19.60
2011,08,16,11,34,19.60
2011,08,16,11,35,19.50
2011,08,16,11,36,19.40
2011,08,16,11,37,19.30
2011,08,16,11,38,19.20
2011,08,16,11,39,19.10
2011,08,16,11,40,19.10
2011,08,16,11,41,19.10
2011,08,16,11,42,19.10
2011,08,16,11,43,19.10
2011,08,16,11,44,19.10
2011,08,16,11,45,19.10
2011,08,16,11,46,19.00
2011,08,16,11,47,19.00
2011,08,16,11,48,19.10
2011,08,16,11,49,19.10
2011,08,16,11,50,19.10
2011,08,16,11,51,19.10
2011,08,16,11,52,19.10
2011,08,16,11,53,19.10
2011,08,16,11,54,19.20
2011,08,16,11,55,19.20
2011,08,16,11,56,19.30
2011,08,16,11,57,19.30
2011,08,16,11,58,19.40
2011,08,16,11,59,19.40
2011,08,16,12,00,19.40
2011,08,16,12,01,19.50
2011,08,16,12,02,19.40
2011,08,16,12,03,19.30
2011,08,16,12,04,19.30
2011,08,16,12,05,19.30
2011,08,16,12,06,19.30
2011,08,16,12,07,19.40
2011,08,16,12,08,19.40
2011,08,16,12,09,19.40
2011,08,16,12,10,19.40
2011,08,16,12,11,19.40
2011,08,16,12,12,19.40
2011,08,16,12,13,19.40
2011,08,16,12,14,19.40
2011,08,16,12,15,19.30
2011,08,16,12,16,19.30
2011,08,16,12,17,19.20
2011,08,16,12,18,19.10
2011,08,16,12,19,19.00
2011,08,16,12,20,18.90
2011,08,16,12,21,18.90
2011,08,16,12,22,18.80
2011,08,16,12,23,18.80
2011,08,16,12,24,18.70
2011,08,16,12,25,18.70
2011,08,16,12,26,18.60
2011,08,16,12,27,18.60
2011,08,16,12,28,18.60
2011,08,16,12,29,18.60
2011,08,16,12,30,18.70
2011,08,16,12,31,18.70
2011,08,16,12,32,18.60
2011,08,16,12,33,18.60
2011,08,16,12,34,18.50
2011,08,16,12,35,18.50
2011,08,16,12,36,18.40
2011,08,16,12,37,18.30
2011,08,16,12,38,18.30
2011,08,16,12,39,18.30
2011,08,16,12,40,18.30
2011,08,16,12,41,18.30
2011,08,16,12,42,18.30
2011,08,16,12,43,18.20
2011,08,16,12,44,18.20
2011,08,16,12,45,18.20
2011,08,16,12,46,18.20
2011,08,16,12,47,18.10
2011,08,16,12,48,18.10
2011,08,16,12,49,18.10
2011,08,16,12,50,18.10
2011,08,16,12,51,18.00
2011,08,16,12,52,17.80
2011,08,16,12,53,17.80
2011,08,16,12,54,17.70
2011,08,16,12,55,17.70
2011,08,16,12,56,17.80
2011,08,16,12,57,17.90
2011,08,16,12,58,18.00
2011,08,16,12,59,18.10
2011,08,16,13,00,18.20
2011,08,16,13,01,18.20
2011,08,16,13,02,18.20
2011,08,16,13,03,18.30
2011,08,16,13,04,18.40
2011,08,16,13,05,18.50
2011,08,16,13,06,18.60
2011,08,16,13,07,18.70
2011,08,16,13,08,18.80
2011,08,16,13,09,18.90
2011,08,16,13,10,19.00
2011,08,16,13,11,19.10
2011,08,16,13,12,19.10
2011,08,16,13,13,19.10
2011,08,16,13,14,19.10
2011,08,16,13,15,19.10
2011,08,16,13,16,19.10
2011,08,16,13,17,19.10
2011,08,16,13,18,19.20
2011,08,16,13,19,19.30
2011,08,16,13,20,19.40
2011,08,16,13,21,19.50
2011,08,16,13,22,19.50
2011,08,16,13,23,19.50
2011,08,16,13,24,19.40
2011,08,16,13,25,19.40
2011,08,16,13,26,19.30
2011,08,16,13,27,19.30
2011,08,16,13,28,19.40
2011,08,16,13,29,19.40
2011,08,16,13,30,19.30
2011,08,16,13,31,19.20
2011,08,16,13,32,19.20
2011,08,16,13,33,19.20
2011,08,16,13,34,19.20
2011,08,16,13,35,19.20
2011,08,16,13,36,19.30
2011,08,16,13,37,19.40
2011,08,16,13,38,19.40
2011,08,16,13,39,19.40
2011,08,16,13,40,19.40
2011,08,16,13,41,19.50
2011,08,16,13,42,19.50
2011,08,16,13,43,19.50
2011,08,16,13,44,19.60
2011,08,16,13,45,19.60
2011,08,16,13,46,19.60
2011,08,16,13,47,19.60
2011,08,16,13,48,19.60
2011,08,16,13,49,19.60
2011,08,16,13,50,19.50
2011,08,16,13,51,19.50
2011,08,16,13,52,19.50
2011,08,16,13,53,19.60
2011,08,16,13,54,19.50
2011,08,16,13,55,19.50
2011,08,16,13,56,19.40
2011,08,16,13,57,19.30
2011,08,16,13,58,19.20
2011,08,16,13,59,19.10
2011,08,16,14,00,19.10
2011,08,16,14,01,19.10
2011,08,16,14,02,19.10
2011,08,16,14,03,19.10
2011,08,16,14,04,19.10
2011,08,16,14,05,19.10
2011,08,16,14,06,18.90
2011,08,16,14,07,18.80
2011,08,16,14,08,18.80
2011,08,16,14,09,18.80
2011,08,16,14,10,18.80
2011,08,16,14,11,18.90
2011,08,16,14,12,19.00
2011,08,16,14,13,19.00
2011,08,16,14,14,19.10
2011,08,16,14,15,19.30
2011,08,16,14,16,19.40
2011,08,16,14,17,19.60
2011,08,16,14,18,19.60
2011,08,16,14,19,19.70
2011,08,16,14,20,19.80
2011,08,16,14,21,19.90
2011,08,16,14,22,20.00
2011,08,16,14,23,20.10
2011,08,16,14,24,20.10
2011,08,16,14,25,20.20
2011,08,16,14,26,20.20
2011,08,16,14,27,20.10
2011,08,16,14,28,20.10
2011,08,16,14,29,20.00
2011,08,16,14,30,20.00
2011,08,16,14,31,19.90
2011,08,16,14,32,19.70
2011,08,16,14,33,19.60
2011,08,16,14,34,19.50
2011,08,16,14,35,19.40
2011,08,16,14,36,19.40
2011,08,16,14,37,19.40
2011,08,16,14,38,19.40
2011,08,16,14,39,19.40
2011,08,16,14,40,19.30
2011,08,16,14,41,19.30
2011,08,16,14,42,19.10
2011,08,16,14,43,19.10
2011,08,16,14,44,19.20
2011,08,16,14,45,19.20
2011,08,16,14,46,19.30
2011,08,16,14,47,19.30
2011,08,16,14,48,19.40
2011,08,16,14,49,19.50
2011,08,16,14,50,19.60
2011,08,16,14,51,19.60
2011,08,16,14,52,19.60
2011,08,16,14,53,19.60
2011,08,16,14,54,19.60
2011,08,16,14,55,19.60
2011,08,16,14,56,19.60
2011,08,16,14,57,19.60
2011,08,16,14,58,19.70
2011,08,16,14,59,19.70
2011,08,16,15,00,19.70
2011,08,16,15,01,19.80
2011,08,16,15,02,19.90
2011,08,16,15,03,19.90
2011,08,16,15,04,20.00
2011,08,16,15,05,20.10
2011,08,16,15,06,20.20
2011,08,16,15,07,20.20
2011,08,16,15,08,20.20
2011,08,16,15,09,20.20
2011,08,16,15,10,20.20
2011,08,16,15,11,20.30
2011,08,16,15,12,20.30
2011,08,16,15,13,20.30
2011,08,16,15,14,20.40
2011,08,16,15,15,20.40
2011,08,16,15,16,20.50
2011,08,16,15,17,20.60
2011,08,16,15,18,20.60
2011,08,16,15,19,20.50
2011,08,16,15,20,20.40
2011,08,16,15,21,20.20
2011,08,16,15,22,20.10
2011,08,16,15,23,19.90
2011,08,16,15,24,19.90
2011,08,16,15,25,20.00
2011,08,16,15,26,20.10
2011,08,16,15,27,20.10
2011,08,16,15,28,20.20
2011,08,16,15,29,20.30
2011,08,16,15,30,20.30
2011,08,16,15,31,20.40
2011,08,16,15,32,20.40
2011,08,16,15,33,20.40
2011,08,16,15,34,20.40
2011,08,16,15,35,20.40
2011,08,16,15,36,20.40
2011,08,16,15,37,20.40
2011,08,16,15,38,20.40
2011,08,16,15,39,20.40
2011,08,16,15,40,20.50
2011,08,16,15,41,20.50
2011,08,16,15,42,20.50
2011,08,16,15,43,20.40
2011,08,16,15,44,20.40
2011,08,16,15,45,20.40
2011,08,16,15,46,20.40
2011,08,16,15,47,20.40
2011,08,16,15,48,20.40
2011,08,16,15,49,20.40
2011,08,16,15,50,20.40
2011,08,16,15,51,20.40
2011,08,16,15,52,20.40
2011,08,16,15,53,20.40
2011,08,16,15,54,20.40
2011,08,16,15,55,20.40
2011,08,16,15,56,20.50
2011,08,16,15,57,20.50
2011,08,16,15,58,20.60
2011,08,16,15,59,20.60
2011,08,16,16,00,20.60
2011,08,16,16,01,20.60
2011,08,16,16,02,20.60
2011,08,16,16,03,20.60
2011,08,16,16,04,20.60
2011,08,16,16,05,20.50
2011,08,16,16,06,20.40
2011,08,16,16,07,20.30
2011,08,16,16,08,20.30
2011,08,16,16,09,20.30
2011,08,16,16,10,20.30
2011,08,16,16,11,20.20
2011,08,16,16,12,20.20
2011,08,16,16,13,20.20
2011,08,16,16,14,20.20
2011,08,16,16,15,20.20
2011,08,16,16,16,20.20
2011,08,16,16,17,20.20
2011,08,16,16,18,20.20
2011,08,16,16,19,20.30
2011,08,16,16,20,20.30
2011,08,16,16,21,20.30
2011,08,16,16,22,20.30
2011,08,16,16,23,20.30
2011,08,16,16,24,20.30
2011,08,16,16,25,20.40
2011,08,16,16,26,20.40
2011,08,16,16,27,20.50
2011,08,16,16,28,20.50
2011,08,16,16,29,20.60
2011,08,16,16,30,20.60
2011,08,16,16,31,20.70
2011,08,16,16,32,20.70
2011,08,16,16,33,20.70
2011,08,16,16,34,20.70
2011,08,16,16,35,20.70
2011,08,16,16,36,20.70
2011,08,16,16,37,20.70
2011,08,16,16,38,20.70
2011,08,16,16,39,20.60
2011,08,16,16,40,20.60
2011,08,16,16,41,20.60
2011,08,16,16,42,20.60
2011,08,16,16,43,20.60
2011,08,16,16,44,20.70
2011,08,16,16,45,20.80
2011,08,16,16,46,20.80
2011,08,16,16,47,20.80
2011,08,16,16,48,20.80
2011,08,16,16,49,20.80
2011,08,16,16,50,20.80
2011,08,16,16,51,20.70
2011,08,16,16,52,20.70
2011,08,16,16,53,20.70
2011,08,16,16,54,20.70
2011,08,16,16,55,20.60
2011,08,16,16,56,20.60
2011,08,16,16,57,20.60
2011,08,16,16,58,20.50
2011,08,16,16,59,20.50
2011,08,16,17,00,20.50
2011,08,16,17,01,20.40
2011,08,16,17,02,20.50
2011,08,16,17,03,20.50
2011,08,16,17,04,20.50
2011,08,16,17,05,20.50
2011,08,16,17,06,20.50
2011,08,16,17,07,20.60
2011,08,16,17,08,20.60
2011,08,16,17,09,20.60
2011,08,16,17,10,20.60
2011,08,16,17,11,20.60
2011,08,16,17,12,20.70
2011,08,16,17,13,20.80
2011,08,16,17,14,20.80
2011,08,16,17,15,20.80
2011,08,16,17,16,20.70
2011,08,16,17,17,20.70
2011,08,16,17,18,20.70
2011,08,16,17,19,20.60
2011,08,16,17,20,20.60
2011,08,16,17,21,20.60
2011,08,16,17,22,20.70
2011,08,16,17,23,20.70